RH
15 12 11 10 16 17 21 19 16 8 4 6 87 88 98 92 89 38 20 21 28 24 20 18 21 24 25 27 35 40 39 37 33 31 30 27 23 24 23 29 35 38 37 38 38
9 6 9 31 75 98 96 98 71 24 10 3 52 91 99 95 95 51 27 26 29 27 22 18 18 23 26 27 35 37 38 36 34 31 28 28 28 22 21 23 28 38 35 36 38
9 21 39 71 80 83 86 88 97 96 32 9 17 100 92 96 98 63 49 27 29 28 25 20 21 25 25 28 33 34 32 28 26 23 24 27 26 23 20 19 24 38 37 36 38
22 30 73 83 76 67 72 91 93 96 78 40 13 81 96 86 99 71 51 29 29 28 27 22 21 29 33 32 30 31 30 27 21 21 25 26 24 23 18 14 23 37 42 43 41
27 48 48 73 68 72 74 75 94 92 81 83 17 54 99 99 91 71 44 31 30 29 27 43 22 27 29 30 33 32 32 28 21 22 24 23 20 18 13 13 17 31 40 44 44
81 77 89 72 59 70 74 76 82 83 86 80 44 37 100 96 83 90 50 32 27 29 30 61 31 32 37 30 28 37 32 24 20 22 20 20 17 17 10 11 13 18 38 45 49
100 78 86 74 54 64 75 80 86 88 87 75 59 77 99 96 96 99 49 49 34 34 32 55 47 41 40 44 38 50 40 32 24 24 26 23 18 14 12 14 12 12 19 43 49
87 92 91 90 62 76 73 70 73 78 72 61 48 100 99 99 96 99 45 85 56 53 65 81 45 48 58 55 54 56 57 49 30 25 27 29 20 23 19 16 13 14 16 23 45
99 100 90 72 75 71 70 78 78 72 72 66 64 53 96 88 100 89 47 86 75 74 95 82 53 62 71 72 76 80 71 52 39 32 33 27 27 22 24 17 15 13 13 18 19
99 97 89 51 66 58 77 84 85 81 78 62 71 93 96 71 97 69 94 97 87 95 99 96 87 79 81 92 88 88 87 52 40 38 35 40 58 22 19 21 20 15 11 10 10
34 70 48 46 51 73 76 69 80 75 92 76 47 94 98 100 94 91 100 93 88 99 99 97 94 94 83 84 77 69 68 62 54 57 58 48 50 28 18 20 18 16 14 15 14
92 47 42 43 47 78 64 79 92 73 75 68 39 95 96 88 99 86 86 92 81 98 98 99 100 99 91 91 90 89 86 75 77 76 75 62 56 38 19 21 24 28 26 23 24
97 95 54 47 50 57 74 91 93 72 80 65 44 98 99 88 98 66 95 100 83 96 100 97 98 100 100 98 97 99 89 86 78 80 79 73 59 35 24 28 30 27 27 22 21
84 80 93 62 64 70 93 83 83 74 59 98 44 100 100 99 98 84 100 96 98 94 97 99 86 99 97 99 100 100 94 91 76 78 78 70 74 33 24 17 16 14 14 28 24
71 77 86 88 78 95 89 78 60 46 50 77 93 90 98 99 94 100 100 100 98 98 91 98 90 93 99 99 99 98 87 82 79 81 80 61 59 22 18 16 20 18 20 22 23
58 60 78 90 90 90 88 64 71 90 96 68 97 98 98 95 97 97 100 100 96 99 98 93 100 100 98 100 100 94 84 83 84 84 80 61 54 15 27 29 30 27 23 22 24
56 57 70 79 78 77 64 80 88 93 59 98 92 98 98 96 92 97 99 98 96 97 98 100 99 94 95 98 99 98 89 82 68 84 74 61 61 20 35 34 31 27 21 28 32
50 70 85 82 64 73 89 92 92 100 97 99 98 99 98 94 95 99 99 87 99 90 91 90 98 95 98 91 83 95 87 67 59 79 70 75 71 34 32 35 29 26 35 38 38
36 64 67 48 55 73 76 84 97 95 98 98 98 99 100 98 97 99 95 88 96 91 77 87 85 96 84 94 91 88 86 76 68 85 90 54 36 29 31 33 38 44 45 45 44
39 55 65 70 93 95 84 96 99 99 97 98 94 94 98 98 98 97 87 85 88 89 87 80 84 91 88 94 91 80 78 79 67 71 68 47 40 23 35 42 47 54 57 60 65
50 56 66 84 95 98 99 97 96 85 88 82 74 83 88 98 87 91 79 86 86 87 72 72 74 99 97 98 91 84 84 72 66 68 73 68 32 38 34 49 60 68 69 71 75
52 67 77 85 76 82 100 91 95 90 81 77 77 70 74 82 85 79 80 80 90 87 74 74 77 95 92 92 93 92 82 74 60 82 90 92 45 43 45 56 75 79 76 81 70
56 83 81 77 86 94 89 97 92 82 70 62 69 66 65 71 80 74 71 79 81 87 80 76 79 95 99 96 97 98 99 89 75 75 80 84 46 49 54 72 82 84 78 86 96
47 68 86 94 96 99 96 94 82 77 70 64 67 71 66 70 66 76 79 75 86 90 88 80 75 71 73 74 77 87 75 88 89 89 76 58 39 55 78 83 80 85 96 100 95
42 58 68 98 96 94 88 93 83 78 74 70 74 72 72 73 71 75 76 75 76 83 92 88 82 76 76 78 77 81 73 78 84 76 71 49 53 73 89 97 99 100 97 99 100
42 48 82 94 97 97 99 95 83 80 79 75 72 82 78 73 74 68 66 74 83 91 88 93 86 83 75 71 71 73 76 86 74 75 72 56 71 89 95 100 99 98 97 98 98
45 48 70 84 92 92 96 98 89 82 88 88 88 82 83 87 83 88 81 85 84 86 92 93 93 85 73 83 76 68 57 57 56 48 59 70 80 90 95 87 94 98 97 95 98
Wind_Speed
44 45 45 44 44 44 43 42 43 41 39 38 39 26 27 26 29 31 35 27 24 26 29 31 33 34 34 34 34 33 35 38 38 34 31 30 25 22 24 24 22 19 20 18 16
47 46 43 39 31 29 30 28 36 44 38 37 41 37 26 24 27 34 28 23 25 28 30 33 34 35 36 35 35 35 40 41 36 31 31 30 29 21 24 26 23 18 21 22 21
39 35 36 33 29 30 32 32 33 27 41 33 39 39 31 21 29 30 23 26 27 29 29 28 29 32 36 36 38 39 42 38 32 28 33 34 29 25 28 25 24 20 22 22 20
35 34 31 31 30 28 31 32 37 30 29 33 36 38 41 38 26 13 24 26 28 28 29 30 33 35 36 38 39 38 39 35 30 32 35 35 34 31 28 27 28 26 22 21 21
37 32 29 27 26 25 24 25 24 28 27 23 29 40 38 26 34 10 15 25 28 29 31 32 34 36 36 36 35 37 37 35 32 34 37 36 35 29 31 29 31 31 27 23 23
29 23 22 23 23 21 20 21 20 20 22 21 24 39 37 36 20 25 11 24 28 29 31 31 33 32 28 30 33 29 35 34 31 35 36 35 34 33 35 27 31 34 31 26 26
26 23 20 22 19 18 16 15 17 15 16 15 19 39 42 25 19 21 20 19 27 27 30 30 28 27 25 27 24 29 22 28 34 31 30 31 36 39 32 30 30 32 38 34 31
28 22 21 18 17 12 13 13 13 13 13 12 16 35 42 38 19 24 25 19 25 25 25 24 27 25 21 18 17 21 26 19 22 30 30 27 39 25 23 30 29 31 36 41 38
27 26 22 18 12 11 10 11 13 13 9 13 16 38 33 36 25 29 27 20 26 26 25 23 22 27 22 19 16 18 11 28 25 20 20 30 37 29 25 30 31 31 32 39 43
27 28 20 15 12 10 11 14 13 17 9 11 17 32 20 35 27 23 26 23 29 30 27 30 27 28 27 23 19 17 16 13 20 19 25 28 35 35 28 27 28 29 28 30 38
27 21 19 14 13 12 15 20 15 16 10 10 15 31 20 21 28 25 29 23 29 31 32 35 32 35 31 25 16 12 12 12 13 17 23 28 32 32 26 29 30 29 26 26 27
27 22 19 15 12 11 16 19 17 8 6 13 19 29 15 20 23 32 30 27 24 24 29 26 29 26 25 23 20 13 12 12 10 14 19 25 33 31 28 30 29 29 26 23 25
31 23 20 15 14 15 19 20 15 6 1 17 27 26 14 23 24 32 28 22 26 20 23 14 7 19 21 24 23 18 16 12 12 14 19 25 30 21 19 22 22 19 18 19 23
31 24 17 17 18 17 16 10 3 2 7 18 25 26 19 15 28 31 26 22 22 20 14 10 14 11 19 23 26 23 14 10 11 11 7 10 9 21 15 8 11 15 17 11 12
28 21 13 9 16 11 5 4 7 9 5 16 18 22 23 19 24 31 28 16 24 20 17 9 15 10 19 16 13 8 10 7 10 11 12 9 4 9 10 8 5 3 6 12 11
27 25 19 11 8 4 4 7 13 2 2 9 18 20 24 13 35 34 25 17 20 18 13 11 16 10 12 12 15 8 8 8 12 10 2 2 6 4 6 11 11 7 2 7 11
29 29 21 17 16 16 19 13 2 5 12 8 15 29 23 30 29 31 21 20 12 14 11 12 12 9 9 11 10 12 10 2 3 1 3 4 5 6 7 5 2 5 11 12 14
28 26 27 29 25 14 11 10 9 4 2 12 21 27 29 25 28 25 21 21 13 11 19 12 6 13 10 12 10 13 10 5 4 1 2 6 8 4 7 6 5 10 12 16 17
23 18 25 18 15 13 14 12 9 7 10 27 33 35 26 22 25 25 22 22 12 15 5 8 5 14 8 12 11 10 10 11 1 2 2 4 6 8 5 6 5 10 14 19 24
21 18 23 17 17 15 15 16 13 20 39 16 11 17 21 15 21 15 18 18 13 13 11 9 7 11 11 10 12 9 7 6 7 1 2 5 7 6 8 4 8 20 24 24 26
16 16 16 17 16 19 23 23 24 28 18 10 12 20 23 20 18 19 17 13 21 15 10 7 5 10 14 12 14 13 11 6 5 2 2 2 2 4 7 5 15 26 26 25 28
16 14 15 15 15 16 17 23 23 17 13 12 9 19 22 19 21 21 19 4 21 13 10 12 5 7 10 7 9 13 13 13 4 4 3 1 4 5 8 10 30 27 24 24 27
14 13 10 5 10 14 17 20 19 14 11 8 8 11 11 16 11 18 15 14 17 19 10 10 3 7 5 9 14 15 18 16 12 4 6 4 2 1 8 26 19 23 23 28 31
11 6 10 12 14 14 11 9 12 11 8 6 9 9 12 10 4 20 15 14 8 21 16 9 6 4 6 0 3 10 15 20 20 8 8 18 17 15 14 17 19 23 25 30 32
10 6 4 6 9 9 7 7 8 8 8 6 12 11 13 8 4 11 13 15 9 23 19 12 4 8 10 9 9 7 8 18 25 24 14 14 20 14 18 21 25 26 26 31 29
9 6 3 6 7 8 11 7 4 7 11 10 12 11 12 6 5 5 11 14 10 15 16 13 7 4 5 8 12 16 15 14 15 19 24 20 17 11 18 22 23 23 27 31 26
7 7 7 9 9 8 7 8 9 12 14 13 11 9 8 6 6 8 12 9 4 9 16 12 9 4 2 4 7 13 11 19 20 16 13 17 11 15 19 18 20 22 25 26 26
Wind_Direction
307 303 298 293 290 283 277 266 259 255 254 242 226 234 234 253 244 235 231 231 229 222 218 215 212 213 215 216 216 217 220 226 232 237 243 253 247 233 235 223 229 234 236 241 240
305 301 299 297 294 288 285 276 272 256 250 243 226 221 232 238 250 237 230 223 220 221 217 214 211 211 214 214 215 214 222 229 233 239 246 249 246 232 232 229 232 233 238 237 239
307 303 303 303 295 287 281 272 272 270 252 239 232 223 227 236 251 246 232 216 215 217 216 212 209 215 216 216 216 218 225 228 232 237 242 246 245 243 237 232 233 233 237 233 240
305 303 305 301 299 292 287 282 271 273 270 245 227 215 224 233 239 262 222 212 212 211 211 208 205 209 213 216 217 220 227 230 230 233 241 247 249 248 245 235 232 233 235 234 237
309 307 301 303 303 298 294 291 288 275 268 282 227 210 212 238 216 218 209 206 209 208 207 206 207 208 214 217 220 227 231 231 232 234 241 247 250 254 247 236 232 232 234 234 234
316 315 312 310 306 302 299 296 284 277 262 272 234 206 210 235 229 206 203 193 207 205 206 207 209 210 216 220 222 232 234 237 236 240 243 248 252 252 247 237 239 234 234 234 236
314 309 307 310 302 301 305 297 290 285 266 265 242 198 209 214 212 207 192 191 197 201 205 204 207 207 213 217 222 226 236 234 238 241 247 251 252 251 254 251 243 238 237 235 233
318 306 304 307 302 305 308 307 293 281 278 247 229 195 207 212 202 205 189 188 187 195 197 206 202 205 209 204 214 217 228 232 237 242 244 247 256 250 257 257 251 242 239 240 238
318 314 302 298 294 298 306 317 302 299 286 238 212 198 211 214 215 186 187 191 179 184 186 191 199 198 199 196 190 201 222 228 237 243 242 241 257 263 255 258 257 252 243 241 244
316 318 306 294 288 289 305 307 297 299 271 236 201 191 200 214 205 176 174 177 177 182 186 185 185 192 197 189 192 191 207 219 227 242 246 248 258 258 260 262 261 255 252 245 244
322 312 309 291 293 295 303 314 305 306 232 222 198 184 203 197 214 188 182 171 183 189 174 190 182 198 197 192 201 213 213 227 238 245 259 258 266 263 260 260 263 265 263 260 255
329 313 307 291 283 298 308 314 324 309 272 209 182 181 165 202 194 178 184 186 183 196 193 169 187 197 204 195 201 208 223 230 241 251 265 269 269 268 267 270 269 270 271 266 258
332 323 297 288 282 293 312 312 302 300 165 167 167 159 141 188 180 165 179 179 191 199 190 205 191 210 192 193 203 206 214 221 247 262 276 286 290 282 268 272 276 277 268 268 257
341 333 288 274 284 297 318 316 208 151 119 155 172 173 155 167 169 170 171 185 178 202 195 194 199 222 224 195 199 218 216 227 255 284 289 302 295 282 285 277 271 258 250 236 235
8 6 349 292 276 287 345 59 135 131 82 165 173 180 151 169 177 166 168 169 186 173 174 167 211 216 182 184 175 188 199 222 268 286 300 290 255 300 298 263 232 210 205 226 251
19 23 19 16 4 70 77 133 135 31 87 153 188 156 151 139 159 162 173 172 182 184 186 150 157 180 189 172 180 185 206 264 283 280 278 266 208 301 105 130 140 165 241 273 269
39 37 41 53 70 72 110 113 33 53 134 131 177 143 128 147 156 166 161 167 167 166 172 140 165 189 202 189 189 213 217 310 335 67 215 155 224 226 180 196 201 283 303 298 294
52 58 52 55 54 65 31 21 47 99 116 130 147 134 129 150 160 165 152 172 164 169 158 155 164 191 196 205 210 200 206 182 227 193 265 222 235 188 182 216 298 303 298 301 297
50 52 49 53 57 14 20 30 35 5 104 134 139 135 135 149 164 150 167 173 170 170 179 150 129 188 195 213 208 202 209 220 127 270 283 241 269 279 232 252 324 305 296 292 287
48 38 34 18 6 49 66 69 78 91 121 119 101 135 138 154 166 150 162 189 185 189 183 165 136 186 193 196 203 207 195 179 202 127 279 279 282 203 156 182 294 302 306 309 310
18 17 7 29 52 89 85 96 116 131 122 127 127 150 154 140 178 171 170 183 200 203 211 199 174 163 200 212 214 196 201 193 172 190 154 314 272 156 186 316 319 314 314 313 315
11 18 47 58 77 85 101 117 123 126 116 119 129 159 169 167 174 178 185 139 192 200 198 179 161 154 190 236 229 223 231 218 215 185 141 214 281 205 196 320 321 314 309 308 312
10 18 34 21 63 90 117 117 137 147 146 108 136 158 158 179 180 191 201 211 203 198 190 190 153 132 194 237 224 221 223 219 220 162 205 182 240 217 294 313 314 315 316 316 317
2 22 54 61 97 89 116 149 151 163 168 170 147 156 157 160 176 196 198 198 197 195 203 209 211 212 190 245 210 216 228 227 222 211 219 235 279 315 316 319 328 325 328 328 326
334 352 356 85 95 100 114 134 169 182 191 169 166 179 193 177 172 188 205 203 206 201 204 214 239 250 253 266 279 274 246 226 226 231 237 275 297 327 325 325 329 325 331 332 331
298 312 191 128 114 114 109 111 142 181 172 177 184 175 189 204 214 213 197 196 174 182 206 204 229 275 276 255 261 262 250 241 236 241 255 278 300 340 323 323 329 329 330 334 332
265 278 222 191 157 147 127 114 105 115 130 135 147 167 190 210 238 162 189 187 188 204 192 201 229 281 275 246 295 280 261 241 243 259 275 274 325 328 319 335 328 326 328 333 332